Starlink 35576

operational
NORAD ID: 66137 Int'l Des: 2025-237 Owner: SPXS Country: US Constellation: starlink
LEOCIRCULAR

About Starlink 35576

Description loading...

Live Position

Loading 3D Globe...

Upcoming Passes

Altitude History

Altitude vs Time

uPlot chart will show altitude changes over time

Two-Line Element Set

1 66137C 25237Z 25298.72270833 -.01208900 00000+0 -18558-2 0 2982
2 66137 53.1547 319.2447 0000821 60.3380 137.9336 16.04815577 18
Epoch: Oct 25, 2025 • Age: 145 hours

Current Status

Altitude 288.5 km
Velocity 7.74 km/s
Sub-Earth Point 37.54°N, 29.57°E
Launch Date Oct 22, 2025
Age 9 days
Type internet

Technical Details

Classification Payload
Mass 575.00 kg
Dry Mass 530.00 kg
Total Mass 575.00 kg
Length 0.30 m
Diameter 4.10 m
Span 29.00 m
Shape Box + pan
Manufacturer SPXS
Bus Type Starlink V2MO
Phase Status In Orbit
Owner/State SPXS/US

Large Constellations

Loading constellations...